Flag for Germany Weather past 2 weeks in Dachau, Bavaria, Germany

Now
57 °F

Sunny.


Feels Like: 55 °F
Forecast: 38 / 43 °F
Wind: 12 mph from Southwest

Location: Oberpfaffenhofen

Current Time: Oct 21, 2014 at 7:11:49 PM

Latest Report: Oct 21, 2014 at 6:50 PM


Visibility: 10 mi

Pressure: 29.74 "Hg

Humidity: 72%

Dew point: 48 °F

Location of DachauLocation

Historic Weather in Dachau — Graph

°F

Dachau temperature yesterday

Maximum temperature yesterday: 70 °F (at 1:50 PM)
Minimum temperature yesterday: 54 °F (at 6:50 AM)
Average temperature yesterday: 63 °F

Past Weeks' High & Low Weather Summary

 TemperatureHumidityPressure
High75 °F (Oct 9, 1:20 PM)100% (Oct 7, 6:50 AM)30.27 "Hg (Oct 7, 6:50 AM)
Low46 °F (Oct 7, 6:50 AM)36% (Oct 9, 2:20 PM)29.77 "Hg (Oct 17, 6:50 AM)
Average60 °F75%29.93 "Hg
* Reported Oct 6 5:20 PM — Oct 21 5:50 PM, Dachau, Weather by CustomWeather, © 2014

Note: Actual official high and low records may vary slightly from our data, if they occured in-between our weather recording intervals... More about our weather records

Advertising

Dachau weather history for previous 24 hours

 ConditionsComfort  
Time TempWeatherWind HumidityBarometerVisibility
5:50 PM
Oct 21
59 °FBroken clouds.14 mph72%29.77 "HgN/A
5:20 PM59 °FBroken clouds.16 mph72%29.77 "HgN/A
4:50 PM59 °FBroken clouds.16 mph72%29.77 "HgN/A
4:20 PM61 °FScattered clouds.20 mph68%29.80 "HgN/A
3:50 PM61 °FScattered clouds.17 mph68%29.80 "HgN/A
3:20 PM61 °FPartly sunny.15 mph72%29.83 "HgN/A
2:50 PM61 °FScattered clouds.20 mph72%29.83 "HgN/A
2:20 PM63 °FScattered clouds.16 mph68%29.86 "HgN/A
1:50 PM61 °FPartly sunny.21 mph72%29.86 "HgN/A
1:20 PM61 °FScattered clouds.17 mph72%29.89 "HgN/A
12:50 PM59 °FPartly sunny.15 mph82%29.92 "HgN/A
12:20 PM59 °FPartly sunny.10 mph82%29.92 "HgN/A
11:50 AM57 °FBroken clouds.10 mph88%29.95 "HgN/A
11:20 AM55 °FSprinkles. Partly sunny.7 mph94%29.95 "HgN/A
10:50 AM55 °FPartly sunny.6 mph88%29.95 "HgN/A
10:20 AM54 °FRain showers. Partly sunny.5 mph88%29.95 "HgN/A
9:50 AM54 °FLots of rain. Partly sunny.6 mph88%29.95 "HgN/A
9:20 AM52 °FSprinkles. Partly sunny.5 mph94%29.95 "HgN/A
8:50 AM52 °FLight rain. Partly sunny.3 mph94%29.98 "Hg4 mi
8:20 AM52 °FLight rain. Passing clouds.5 mph94%29.95 "HgN/A
7:50 AM52 °FPassing clouds.5 mph94%29.95 "HgN/A
7:20 AM52 °FSprinkles. Passing clouds.5 mph94%29.98 "HgN/A
6:50 AM52 °FSprinkles. Passing clouds.3 mph94%29.98 "HgN/A
6:20 AM52 °FSprinkles. Passing clouds.3 mph94%29.98 "HgN/A
7:50 PM
Oct 20
61 °FMostly cloudy.7 mph83%30.07 "HgN/A
7:20 PM63 °FMostly cloudy.9 mph77%30.07 "HgN/A
Weather by CustomWeather, © 2014

See weather overviewHow to use our weather pages